Preview of NWS' New Version of Forecast
This preview is not operational and should not be used for support decisions.

Regional Weather Roundup (RWR)

Issued by National Weather Service (NWS)

                            
000
ASUS42 KTBW 152118
RWRFL 
FLORIDA REGIONAL WEATHER ROUNDUP
NATIONAL WEATHER SERVICE TAMPA BAY RUSKIN FL
500 PM EDT SUN SEP 15 2019

NOTE: "FAIR" INDICATES FEW OR NO CLOUDS BELOW 12,000 FEET WITH NO
SIGNIFICANT WEATHER AND/OR OBSTRUCTIONS TO VISIBILITY.

FLZ001>010-012>015-112-114-115-152200-
PANHANDLE FLORIDA
  
CITY           SKY/WX    TMP DP  RH WIND       PRES   REMARKS
PENSACOLA      FAIR      93  67  42 VRB7      29.97F HX  96           
PENSACOLA NAS  PTSUNNY   88  75  65 SE7       29.97S HX  97           
MILTON NAS     FAIR      93  32  11 VRB7      29.98F                  
CRESTVIEW      FAIR      95  67  39 NE9       30.00S HX  99           
DUKE FIELD     FAIR      94  64  37 NE9G17    29.97F HX  95           
VALPARAISO     FAIR      92  65  39 NE8       29.96F                  
MARY ESTHER    MOSUNNY   92  69  47 SE8       29.95F HX  96           
TRI COUNTY     FAIR      92  65  40 N9        29.99S                  
PANAMA CITY    FAIR      94  68  42 N13       29.95F HX  98           
TYNDALL AFB    FAIR      91  70  49 NE7       29.95F HX  97           
APALACHICOLA   FAIR      88  74  63 SE9       29.95F HX  96           

STATION/POSITION SKY/WX   TEMP    WIND        PRES    WAVE   SWELL
                          AIR SEA DIR/SP/G            HT/PER HT/PER
                          (F)     (DEG/KT/KT) (MB)    (FT/S) (FT/S)
30.1N   87.6W              84 86   50/  8/ 12 1015.5F   4/ 7   3/ 7
29.2N   88.2W              84      80/ 17/ 23 1014.6F   5/ 8   3/ 8
28.8N   86.0W                 85   80/ 14/ 17 1014.5R   5/ 7
PANAMA CITY BEAC           91 86   60/ 11/ 13 1014.9
TOWER C                    83      70/ 12/ 13 1014.4F
28.5N   84.5W              84      40/ 10/ 12 1014.3F   4/ 6   3/ 6

$$
FLZ011-016>038-118-127-128-134-139-239-152200-
NORTH FLORIDA
  
CITY           SKY/WX    TMP DP  RH WIND       PRES   REMARKS
MARIANNA       FAIR      93  67  42 NE13      29.96F HX  96           
TALLAHASSEE    PTSUNNY   92  71  50 N8        29.95S HX  98           
PERRY          PTSUNNY   92  72  51 E8G16     29.94F HX 100           
LIVE OAK       MOSUNNY   91  70  49 N9        29.94R HX  97           
CROSS CITY       N/A     85  76  75 NE8       29.95R HX  95           
LAKE CITY      FAIR      88  72  58 NE13G18   29.95F                  
GAINESVILLE    PTSUNNY   86  74  67 NE10      29.97S                  
WILLISTON      PTSUNNY   87  74  66 NE15G22   29.93F HX  95           
PALATKA        CLOUDY    84  73  70 NE17      29.93S                  
MAYPORT NAS    LGT RAIN  79  76  90 NE20      29.95S FOG              
JACKSONVILLE   PTSUNNY   80  75  84 NE10      29.96S                  
JAX NAS        PTSUNNY   85  74  69 N21       29.95F                  
JAX CECIL      MOSUNNY   82  77  83 NE14      29.95F                  
FERNANDINA BEA PTSUNNY   81  77  90 NE12G24   29.97S                  
ST AUGUSTINE   FAIR      79 N/A N/A N16       29.94S                  
PALM COAST     MOSUNNY   84  75  74 N15G23    29.91F                  

STATION/POSITION SKY/WX   TEMP    WIND        PRES    WAVE   SWELL
                          AIR SEA DIR/SP/G            HT/PER HT/PER
                          (F)     (DEG/KT/KT) (MB)    (FT/S) (FT/S)
SHELL POINT      NOT AVBL
KEATON BEACH               89      50/  7/  8 1013.7F
CEDAR KEY                  87      50/  9/ 11 1013.5F
FERNANDINA                 86 84   10/ 11/ 18 1015.4
30.7N   81.3W                 83                N/A     8/ 8   2/11
MAYPORT                    78 84   60/ 19/ 23 1014.9
31.4N   80.9W              82 83   50/ 21/ 27 1014.5F   7/10   5/10
ST AUGUSTINE               82 84  360/ 19/ 21 1013.4F

$$
FLZ040-043>046-052-053-057-058-063-144-152200-
INTERIOR CENTRAL FLORIDA
  
CITY           SKY/WX    TMP DP  RH WIND       PRES   REMARKS
OCALA          FAIR      86  78  77 N12       29.93S HX  98           
LEESBURG       FAIR      91  73  55 N14       29.91F HX  99           
SANFORD        LGT RAIN  81  74  79 N8        29.89S                  
ORLANDO EXEC   FAIR      89  71  55 N14       29.89F HX  95           
ORLANDO INTL   PTSUNNY   88  72  58 N14       29.89S                  
KISSIMMEE      FAIR      88  73  61 N8        29.90F HX  95           
WINTER HAVEN   FAIR      88  75  65 NE8       29.92F HX  97           
LAKELAND       MOSUNNY   84  73  70 NE12G21   29.91S                  
SEBRING        FAIR      80  76  88 W6        29.90S                  
OKEECHOBEE     CLOUDY    84  75  74 N6        29.88S                  

$$
FLZ041-047-054-059-064-141-147-152200-
EAST CENTRAL FLORIDA
  
CITY           SKY/WX    TMP DP  RH WIND       PRES   REMARKS
ORMOND BEACH   MOSUNNY   84  81  89 N15G22    29.90F HX  98           
DAYTONA BEACH  CLOUDY    84  75  74 N21       29.89S                  
DELAND         FAIR      82  75  78 N17       29.90S                  
NEW SMYRNA BEA MOSUNNY   86  73  66 N17G23    29.90R                  
JFK SPACE CTR  MOSUNNY   84  78  81 N9G22     29.87R                  
TITUSVILLE     MOSUNNY   90  75  62 N17       29.88S HX 100           
CAPE CANAVERAL   N/A     86  80  82 N15G21    29.86  HX 100           
PATRICK AFB    FAIR      86  78  76 NW14      29.87R HX  98           
MELBOURNE      FAIR      88  73  61 N15G23    29.85F HX  95           
VERO BEACH     FAIR      86  77  74 NW8       29.86F HX  97           
FT PIERCE      LGT RAIN  83  76  79 NW7       29.87F                  
STUART         PTSUNNY   84  75  74 N6        29.88F                  

STATION/POSITION SKY/WX   TEMP    WIND        PRES    WAVE   SWELL
                          AIR SEA DIR/SP/G            HT/PER HT/PER
                          (F)     (DEG/KT/KT) (MB)    (FT/S) (FT/S)
28.5N   80.2W              82 85  340/ 19/ 25 1010.9R  10/10   7/10
28.9N   78.5W              80 82  310/ 35/ 47  999.3R  13/ 8   2/15
TRIDENT PIER               84 84  340/ 10/ 17 1012.6
28.4N   80.5W                 83                N/A     4/11   2/11
27.5N   80.2W                 84                N/A     5/10   2/11

$$
FLZ050-056-061-142-242-148-248-149-249-151-251-155-255-
160-260-152200-
WEST CENTRAL FLORIDA
  
CITY           SKY/WX    TMP DP  RH WIND       PRES   REMARKS
CRYSTAL RIVER  FAIR      90  72  55 NE7       29.91S HX  96           
INVERNESS      FAIR      88  73  62 N9        29.91S HX  96           
BROOKSVILLE    FAIR      86  76  71 E6        29.91F HX  96           
CLEARWATER AIR FAIR      82  77  83 N5        29.91S                  
ST PETE CLEARW TSTM      81  76  84 E9G18     29.92R                  
TAMPA INTL     NOT AVBL                                               
TAMPA EXEC     PTSUNNY   82  81  94 CALM      29.91S HX  95           
PLANT CITY     FAIR      88  77  70 NE7       29.93S HX 100           
MACDILL AFB    TSTM      77  73  88 W3        29.92S FOG              
PETER O KNIGHT LGT RAIN N/A N/A N/A W6        29.92S                  
ST PETERSBURG  PTSUNNY   82  74  76 N17       29.91R                  
SARASOTA       FAIR      90  75  61 W13       29.88S HX 100           
VENICE         FAIR      86  77  74 W10       29.91S HX  97           

STATION/POSITION SKY/WX   TEMP    WIND        PRES    WAVE   SWELL
                          AIR SEA DIR/SP/G            HT/PER HT/PER
                          (F)     (DEG/KT/KT) (MB)    (FT/S) (FT/S)
27.3N   84.2W                 85                N/A     3/ 6
CLEARWATER BEACH           84 86  320/ 14/ 15 1013.1
MIDDLE TAMPA BAY           83     300/ 11/ 12 1012.8
VENICE                     84 86  270/ 11/ 12 1012.6R

$$
FLZ066-069-070-075>078-162-262-165-265-152200-
SOUTHWEST FLORIDA AND KEYS
  
CITY           SKY/WX    TMP DP  RH WIND       PRES   REMARKS
PUNTA GORDA    FAIR      89  73  59 W12       29.90S HX  97           
FT MYERS       FAIR      89  74  60 W13       29.89R HX  98           
SOUTHWEST INTL FAIR      90  75  61 W9        29.89S HX 100           
NAPLES         FAIR      88  78  72 W10       29.90S HX 101           
MARCO ISLAND     N/A    N/A N/A N/A W8        29.91S                  
IMMOKALEE      FAIR      93  73  52 W14       29.86S HX 102           
MARATHON       FAIR      91  78  65 W9        29.90F HX 106           
KEY WEST NAS   PTSUNNY   89  77  67 W9        29.91S HX 101           
KEY WEST INTL  FAIR      88  76  67 W12       29.91S HX  99           

STATION/POSITION SKY/WX   TEMP    WIND        PRES    WAVE   SWELL
                          AIR SEA DIR/SP/G            HT/PER HT/PER
                          (F)     (DEG/KT/KT) (MB)    (FT/S) (FT/S)
NAPLES                     88 87  260/  6/  7 1012.9
26.0N   85.6W              85 87  130/  6/  8 1012.8F   4/ 8   5/ 8
DRY TORTUGAS               85     270/  6/  7 1013.2R
SOMBRERO KEY               85     250/ 12/ 14 1013.0F
LONG KEY                   86                 1011.7F

$$
FLZ067-068-071>074-168-172>174-152200-
SOUTHEAST FLORIDA 
  
CITY           SKY/WX    TMP DP  RH WIND       PRES   REMARKS
W PALM BEACH   PTSUNNY   87  74  64 N12       29.87F HX  95           
BOCA RATON     MOSUNNY   95  72  46 W12G21    29.86F HX 103           
FT LAUDER-EXEC FAIR      90  72  55 W8        29.86F HX  97           
FT LAUDERDALE  RAIN      84  76  76 W14G22    29.87S                  
PEMBROKE PINES PTSUNNY   90  72  55 NW14      29.88F HX  97           
OPA LOCKA      FAIR      93  74  53 W13       29.87F HX 103           
MIAMI          PTSUNNY   92  72  51 W10       29.87F HX  99           
WEST KENDALL   FAIR      92  75  57 W14G22    29.87F HX 103           
HOMESTEAD      FAIR      92  74  55 SW10      29.87S HX 102           

STATION/POSITION SKY/WX   TEMP    WIND        PRES    WAVE   SWELL
                          AIR SEA DIR/SP/G            HT/PER HT/PER
                          (F)     (DEG/KT/KT) (MB)    (FT/S) (FT/S)
VIRGINIA KEY               89 88  230/ 12/ 13 1011.5
LAKE WORTH                 86 85  330/ 14/ 19 1012.5
FOWEY ROCKS                89 86  220/  5/  7 1011.8F
SETTLEMENT POINT           82     290/ 16/ 18 1011.5S

$$